Weather History for Lincoln, NE

Change the Weather History Date:

Sunday, September 7, 2014

  Actual Average Record
Temperature  
Mean Temperature 64 °F 70 °F  
Max Temperature 79 °F 82 °F 104 °F (1939)
Min Temperature 48 °F 58 °F 42 °F (1944)
Degree Days  
Heating Degree Days 1 1  
Month to date heating degree days 9 7  
Since 1 July heating degree days 11 13  
Cooling Degree Days 0 6  
Month to date cooling degree days 38 47  
Year to date cooling degree days 1149 1082  
Growing Degree Days 14 (Base 50)    
Moisture  
Dew Point 50 °F    
Average Humidity 66    
Maximum Humidity 93    
Minimum Humidity 39    
Precipitation  
Precipitation 0.00 in 0.10 in 2.01 in (2001)
Month to date precipitation T 0.79  
Year to date precipitation 23.70 22.37  
Snow  
Snow 0.00 in 0.00 in - ()
Month to date snowfall 0.0 0.0  
Since 1 July snowfall 0.0 0.0  
Snow Depth 0.00 in    
Sea Level Pressure  
Sea Level Pressure 30.14 in    
Wind  
Wind Speed 7 mph (South)    
Max Wind Speed 16 mph    
Max Gust Speed 22 mph    
Visibility 10 miles    
Events      
T = Trace of Precipitation, MM = Missing Value Source: NWS Daily Summary

Daily Weather History Graph

Daily Weather History Graph

Search for Another Location

Airport:

Trip Planner

Search our weather history database for the weather conditions in past years. The results will help you decide how hot, cold, wet, or windy it might be!

Date:

Astronomy

Sep. 07, 2014 Rise Set
Actual Time 6:59 AM CDT 7:49 PM CDT
Civil Twilight 6:31 AM CDT 8:17 PM CDT
Nautical Twilight 5:58 AM CDT 8:50 PM CDT
Astronomical Twilight 5:24 AM CDT 9:24 PM CDT
Moon 6:50 PM CDT (9/7) 5:13 AM CDT (9/7)
Length of Visible Light 13h 45m
Length of Day
12h 49m
Waxing Gibbous, 97% of the Moon is Illuminated
Sep 7
Waxing Gibbous
Sep 8
Full
Sep 15
Last Quarter
Sep 24
New
Oct 1
First Quarter

Hourly Weather History & Observations

Time (CDT) Temp. Dew Point Humidity Pressure Visibility Wind Dir Wind Speed Gust Speed Precip Events Conditions
12:54 AM 51.1 °F 48.0 °F 89% 30.25 in 10.0 mi North 3.5 mph - N/A   Clear
1:54 AM 51.1 °F 48.0 °F 89% 30.24 in 10.0 mi Calm Calm - N/A   Clear
2:54 AM 48.9 °F 46.9 °F 93% 30.24 in 10.0 mi Calm Calm - N/A   Clear
3:54 AM 50.0 °F 48.0 °F 93% 30.22 in 10.0 mi Calm Calm - N/A   Clear
4:54 AM 48.0 °F 46.0 °F 93% 30.22 in 10.0 mi Calm Calm - N/A   Clear
5:54 AM 48.9 °F 46.9 °F 93% 30.22 in 10.0 mi South 3.5 mph - N/A   Clear
6:54 AM 48.9 °F 46.0 °F 90% 30.22 in 10.0 mi SSE 3.5 mph - N/A   Clear
7:54 AM 51.1 °F 48.0 °F 89% 30.22 in 9.0 mi Calm Calm - N/A   Clear
8:54 AM 57.0 °F 51.1 °F 81% 30.21 in 10.0 mi South 4.6 mph - N/A   Clear
9:54 AM 64.0 °F 54.0 °F 70% 30.20 in 10.0 mi South 8.1 mph - N/A   Clear
10:54 AM 69.1 °F 52.0 °F 54% 30.20 in 10.0 mi SSW 12.7 mph - N/A   Clear
11:54 AM 72.0 °F 53.1 °F 51% 30.19 in 10.0 mi South 10.4 mph - N/A   Clear
12:54 PM 73.9 °F 54.0 °F 50% 30.16 in 10.0 mi South 8.1 mph - N/A   Clear
1:54 PM 75.0 °F 54.0 °F 48% 30.13 in 10.0 mi South 10.4 mph - N/A   Clear
2:54 PM 77.0 °F 52.0 °F 42% 30.10 in 10.0 mi South 12.7 mph 18.4 mph N/A   Clear
3:54 PM 78.1 °F 52.0 °F 40% 30.07 in 10.0 mi SSE 8.1 mph - N/A   Clear
4:54 PM 78.1 °F 52.0 °F 40% 30.05 in 10.0 mi SSW 10.4 mph - N/A   Clear
5:54 PM 75.9 °F 51.1 °F 42% 30.04 in 10.0 mi South 12.7 mph - N/A   Clear
6:54 PM 75.0 °F 51.1 °F 43% 30.01 in 10.0 mi South 11.5 mph - N/A   Clear
7:54 PM 69.1 °F 51.1 °F 53% 30.02 in 10.0 mi South 8.1 mph - N/A   Clear
8:54 PM 64.9 °F 51.1 °F 61% 30.02 in 10.0 mi SSE 8.1 mph - N/A   Clear
9:54 PM 62.1 °F 52.0 °F 70% 30.03 in 10.0 mi South 8.1 mph - N/A   Clear
11:54 PM 61.0 °F 53.1 °F 75% 30.01 in 10.0 mi South 9.2 mph - N/A   Clear